Regional Weather Roundup
Issued by NWS Charleston, SC

Current Version | Previous Version | Graphics & Text | Print | Product List | Glossary On
Versions: 1 2 3 4 5 6 7 8 9 10 11 12 13 14 15 16 17 18 19 20 21 22 23 24 25 26 27 28 29 30 31 32 33 34 35 36 37 38 39 40 41 42 43 44 45 46 47 48 49 50
848 ASUS42 KCHS 101812 RWRCHS REGIONAL WEATHER ROUNDUP NATIONAL WEATHER SERVICE CHARLESTON SC 100 PM EST SAT DEC 10 2016 NOTE: "FAIR" INDICATES FEW OR NO CLOUDS BELOW 12,000 FEET WITH NO SIGNIFICANT WEATHER AND/OR OBSTRUCTIONS TO VISIBILITY. NOT ALL STATIONS ARE QUALITY CONTROLLED. USE DATA WITH CAUTION... ESPECIALLY DEWPOINT OBSERVATIONS. SCZ027-030-031-034>040-042>050-101900- ...SOUTHEAST SOUTH CAROLINA... CITY SKY/WX TMP DP RH WIND PRES REMARKS N CHARLESTON SUNNY 50 19 29 VRB6 30.50F 6HR MIN TEMP: 31; 6HR MAX TEMP: 50; WATERFRONT PRK N/A 46 27 47 N9 30.50F MOUNT PLEASANT NOT AVBL JOHNS ISLAND FAIR 48 21 34 NE8 30.50F PINOPOLIS N/A 39 25 56 VRB3 30.46F MONCKS CORNER FAIR 43 21 42 N5 30.51F SUMMERVILLE FAIR 46 23 39 N7 30.52F BEAUFORT MCAS SUNNY 52 18 26 N7 30.49F 6HR MIN TEMP: 33; 6HR MAX TEMP: 52; BEAUFORT ARPT FAIR 50 25 37 NE6 30.49F HILTON HEAD IS NOT AVBL WALTERBORO CLEAR 50 19 29 N6 30.51F ALLENDALE FAIR 46 21 36 VRB3 30.49F ...SOUTHERN MIDLANDS AND PEE DEE... CITY SKY/WX TMP DP RH WIND PRES REMARKS GEORGETOWN NOT AVBL KINGSTREE FAIR 43 18 36 N3 30.52F ORANGEBURG SUNNY 44 19 36 CALM 30.51F 6HR MIN TEMP: 28; 6HR MAX TEMP: 44; BARNWELL NOT AVBL AIKEN FAIR 43 19 39 E3 30.53F MANNING FAIR 43 19 39 N3 30.52F COLUMBIA SUNNY 44 17 33 VRB3 30.51F 6HR MIN TEMP: 27; 6HR MAX TEMP: 45; SUMTER SUNNY 42 16 34 NE3 30.50F 6HR MIN TEMP: 24; 6HR MAX TEMP: 42; FLORENCE SUNNY 42 17 36 NE3 30.53F 6HR MIN TEMP: 26; 6HR MAX TEMP: 43; MYRTLE BEACH SUNNY 45 16 31 N9 30.54F N MYRTLE BEACH SUNNY 45 17 32 N8 30.51F 6HR MIN TEMP: 27; 6HR MAX TEMP: 45; $$ GAZ063-065-086>088-099>101-113>116-118-119-134>141-150-101900- ...SOUTHEAST GEORGIA... CITY SKY/WX TMP DP RH WIND PRES REMARKS SAVANNAH ARPT SUNNY 53 21 28 NE5 30.48F 6HR MIN TEMP: 30; 6HR MAX TEMP: 53; HUNTER AAF SUNNY 52 31 44 NE7 30.45F 6HR MIN TEMP: 35; 6HR MAX TEMP: 53; FORT STEWART SUNNY 53 24 32 N3 30.45F 6HR MIN TEMP: 30; 6HR MAX TEMP: 53; STATESBORO SUNNY 50 23 34 CALM 30.49F SYLVANIA CLEAR N/A N/A N/A NE7 30.50F CLAXTON FAIR 51 25 36 N5 30.49F ...CSRA...CENTRAL AND FAR SOUTHEAST GEORGIA... CITY SKY/WX TMP DP RH WIND PRES REMARKS THOMSON SUNNY 47 24 41 CALM 30.54F AUGUSTA-BUSH SUNNY 49 20 31 VRB7 30.51F 6HR MIN TEMP: 24; 6HR MAX TEMP: 49; AUGUSTA-DANIEL SUNNY 47 18 31 N6 30.51F SWAINSBORO FAIR 50 21 32 E5 30.49F VIDALIA SUNNY 52 28 40 E8 30.48F EASTMAN FAIR 52 -8 8 CALM 30.50F HAZLEHURST FAIR 52 20 28 N6 30.46F ALMA SUNNY 53 18 25 E5 30.46F 6HR MIN TEMP: 30; 6HR MAX TEMP: 54; WAYCROSS SUNNY 57 29 34 NE6 30.45F JESUP FAIR 55 32 41 E3 30.46F BAXLEY FAIR 54 27 35 NE7 30.46F BRUNSWICK MOSUNNY 55 45 67 NE10G20 30.46F SAINT SIMONS SUNNY 56 42 59 N16G23 30.44F 6HR MIN TEMP: 41; 6HR MAX TEMP: 56; $$ SCZ027-028-034-036>038-045-046-048>050-GAZ119-141-101900- ...LAKE AND SUPPLEMENTAL COASTAL OBSERVATIONS... STATION/POSITION TIME TEMP WIND PRES WAVE SWELL AIR SEA DIR/SP/G HT/PER HT/PER/DIR (UTC) (F) (DEG/KT/KT) (MB) (FT/S) (FT/S/D) WINYAH BAY 1645 41 70/ 6 1034.0 LAKE MURRAY 1720 41 210/ 2/ 4 1033.5F ACE BASIN NERRS NOT AVBL FORT PULASKI 1742 48 59 40/ 10/ 14 1032.3F SAPELO ISLAND 1700 54 30/ 13 1032.0 $$ ANZ835-935-AMZ111-154-330-350-352-354-370-450-454-472-101900- ...C-MAN AND BUOY OBSERVATIONS... STATION/POSITION TIME TEMP WIND PRES WAVE SWELL AIR SEA DIR/SP/G HT/PER HT/PER/DIR (UTC) (F) (DEG/KT/KT) (MB) (FT/S) (FT/S/D) BUOY 41004 1750 50 73 30/ 12/ 17 1031.6F 3/ 5 2/ 60/ 8 BUOY 41008 1650 54 62 30/ 17/ 21 1031.5 4/ 6 2/ 90/ 8 FOLLY BEACH CMAN 1700 45 40/ 10/ 12 1033.8F CAPERS NEARSHORE 1708 44 59 40/ 14/ 19 1033.3F FRIPP NEARSHORE 1708 47 59 40/ 14/ 17 1032.8F STATION/POSITION TIME TEMP WIND PRES WAVE SWELL AIR SEA DIR/SP/G HT/PER HT/PER/DIR (UTC) (F) (DEG/KT/KT) (MB) (FT/S) (FT/S/D) 5E ST. MARYS GA 1730 63 N/A 4/ 5 FRYING PAN BUOY 1740 47 72 350/ 10/ 16 1032.2F BUOY 41025 1650 42 77 330/ 12/ 17 1032.3 5/ 9 5/ 60/ 9 CAPE LOOKOUT NC 1700 40 350/ 5/ 8 1032.4F BUOY 41002 1750 60 73 20/ 8/ 14 1028.3F 5/ 9 5/ 40/ 9 BUOY 41010 NOT AVBL ST AUGUSTINE FL 1800 59 64 360/ 22/ 23 1029.4F $$

USA.gov is the U.S. government's official web portal to all federal, state and local government web resources and services.